K7LER Weather Reports


Display with metric or nautical units.
time (UTC)temp
F
wind
direction
speed
MPH
gust
MPH
rain 1hr
in
rain 24hr
in
rain mn
in
humidity
%
barometer
mb
20260503232538 75 0 0.0 0.0 0.00 0.00 0.00 43 1010.2
20260503232037 75 0 0.0 0.0 0.00 0.00 0.00 43 1010.5
20260503231556 75 0 0.0 0.0 0.00 0.00 0.00 44 1010.3
20260503231038 75 0 0.0 0.0 0.00 0.00 0.00 43 1010.4
20260503230537 76 0 0.0 0.0 0.00 0.00 0.00 43 1010.5
20260503230044 76 0 0.0 0.0 0.00 0.00 0.00 43 1010.5
20260503225537 76 0 0.0 0.0 0.00 0.00 0.00 42 1010.7
20260503225034 76 0 0.0 0.0 0.00 0.00 0.00 40 1010.8
20260503224545 76 0 0.0 0.0 0.00 0.00 0.00 41 1010.9
20260503224034 76 0 0.0 0.0 0.00 0.00 0.00 40 1011.0
20260503223538 75 0 0.0 0.0 0.00 0.00 0.00 42 1011.0
20260503223057 75 0 0.0 0.0 0.00 0.00 0.00 42 1011.2
20260503222537 75 0 0.0 0.0 0.00 0.00 0.00 43 1011.3
20260503222039 75 0 0.0 0.0 0.00 0.00 0.00 43 1011.3
20260503221544 74 0 0.0 0.0 0.00 0.00 0.00 43 1011.3
20260503221038 74 0 0.0 0.0 0.00 0.00 0.00 44 1011.4
20260503220538 74 0 0.0 0.0 0.00 0.00 0.00 45 1011.5
20260503220052 74 0 0.0 0.0 0.00 0.00 0.00 46 1011.5
20260503215535 74 0 0.0 0.0 0.00 0.00 0.00 45 1011.5
20260503215038 74 0 0.0 0.0 0.00 0.00 0.00 44 1011.5
20260503214548 74 0 0.0 0.0 0.00 0.00 0.00 44 1011.5
20260503214036 74 0 0.0 0.0 0.00 0.00 0.00 41 1011.7
20260503213535 73 0 0.0 0.0 0.00 0.00 0.00 41 1011.7
20260503213100 73 0 0.0 0.0 0.00 0.00 0.00 42 1011.7
20260503212538 73 0 0.0 0.0 0.00 0.00 0.00 44 1011.8
20260503212037 72 0 0.0 0.0 0.00 0.00 0.00 44 1011.9
20260503211548 72 0 0.0 0.0 0.00 0.00 0.00 45 1011.9
20260503211038 73 0 0.0 0.0 0.00 0.00 0.00 43 1011.9
20260503210538 73 0 0.0 0.0 0.00 0.00 0.00 44 1012.0
20260503210054 73 0 0.0 0.0 0.00 0.00 0.00 45 1012.0
20260503205538 72 0 0.0 0.0 0.00 0.00 0.00 47 1012.0
20260503205038 72 0 0.0 0.0 0.00 0.00 0.00 46 1012.1
20260503204553 72 0 0.0 0.0 0.00 0.00 0.00 47 1012.2
20260503204036 72 0 0.0 0.0 0.00 0.00 0.00 47 1012.3
20260503203535 72 0 0.0 0.0 0.00 0.00 0.00 47 1012.4
20260503203041 72 0 0.0 0.0 0.00 0.00 0.00 46 1012.3
20260503202535 72 0 0.0 0.0 0.00 0.00 0.00 46 1012.5
20260503202037 72 0 0.0 0.0 0.00 0.00 0.00 45 1012.5
20260503201546 72 0 0.0 0.0 0.00 0.00 0.00 45 1012.5
20260503201035 72 0 0.0 0.0 0.00 0.00 0.00 44 1012.5
20260503200537 72 0 0.0 0.0 0.00 0.00 0.00 46 1012.5
20260503200056 72 0 0.0 0.0 0.00 0.00 0.00 45 1012.5
20260503195538 72 0 0.0 0.0 0.00 0.00 0.00 46 1012.7
20260503195035 71 0 0.0 0.0 0.00 0.00 0.00 47 1012.7
20260503194546 71 0 0.0 0.0 0.00 0.00 0.00 47 1012.8
20260503194038 72 0 0.0 0.0 0.00 0.00 0.00 47 1012.8
20260503193538 72 0 0.0 0.0 0.00 0.00 0.00 47 1012.8
20260503193054 72 0 0.0 0.0 0.00 0.00 0.00 47 1012.9
20260503192536 71 0 0.0 0.0 0.00 0.00 0.00 49 1012.9
20260503192036 71 0 0.0 0.0 0.00 0.00 0.00 48 1013.0
20260503191542 70 0 0.0 0.0 0.00 0.00 0.00 50 1013.0
20260503191034 70 0 0.0 0.0 0.00 0.00 0.00 51 1013.1
20260503190535 70 0 0.0 0.0 0.00 0.00 0.00 51 1013.1
20260503190049 70 0 0.0 0.0 0.00 0.00 0.00 52 1013.2
20260503185535 70 0 0.0 0.0 0.00 0.00 0.00 52 1013.2
20260503185036 69 0 0.0 0.0 0.00 0.00 0.00 52 1013.3
20260503184557 69 0 0.0 0.0 0.00 0.00 0.00 53 1013.3
20260503184036 69 0 0.0 0.0 0.00 0.00 0.00 53 1013.4
20260503183534 68 0 0.0 0.0 0.00 0.00 0.00 54 1013.5
20260503183100 68 0 0.0 0.0 0.00 0.00 0.00 55 1013.6
20260503182534 68 0 0.0 0.0 0.00 0.00 0.00 55 1013.7
20260503182033 67 0 0.0 0.0 0.00 0.00 0.00 55 1013.6
20260503181544 67 0 0.0 0.0 0.00 0.00 0.00 55 1013.6
20260503181034 67 0 0.0 0.0 0.00 0.00 0.00 55 1013.6
20260503180534 67 0 0.0 0.0 0.00 0.00 0.00 56 1013.7
20260503180046 67 0 0.0 0.0 0.00 0.00 0.00 57 1013.6
20260503175535 66 0 0.0 0.0 0.00 0.00 0.00 58 1013.6
20260503175037 66 0 0.0 0.0 0.00 0.00 0.00 59 1013.7
20260503174540 66 0 0.0 0.0 0.00 0.00 0.00 61 1013.6
20260503174035 66 0 0.0 0.0 0.00 0.00 0.00 61 1013.8
20260503173536 66 0 0.0 0.0 0.00 0.00 0.00 62 1013.8
20260503173110 65 0 0.0 0.0 0.00 0.00 0.00 62 1013.8
20260503172535 0 0.0 0.0 0.00 0.00 0.00 1013.8
20260503172034 0 0.0 0.0 0.00 0.00 0.00 1013.7
20260503171545 0 0.0 0.0 0.00 0.00 0.00 1013.7
20260503171034 0 0.0 0.0 0.00 0.00 0.00 1013.8
20260503170534 0 0.0 0.0 0.00 0.00 0.00 1013.8
20260503150534 0 0.0 0.0 0.00 0.00 0.00 1013.9
20260503131034 0 0.0 0.0 0.00 0.00 0.00 1013.8
20260503130534 0 0.0 0.0 0.00 0.00 0.00 1013.8
20260503110533 0 0.0 0.0 0.00 0.00 0.00 1013.9
20260503081543 0 0.0 0.0 0.00 0.00 0.00 1014.2
20260503081035 0 0.0 0.0 0.00 0.00 0.00 1014.2
20260503080538 0 0.0 0.0 0.00 0.00 0.00 1014.0
20260503072537 0 0.0 0.0 0.00 0.00 0.00 1013.8
20260503072038 0 0.0 0.0 0.00 0.00 0.00 1014.0
20260503071544 0 0.0 0.0 0.00 0.00 0.00 1014.0
20260503071033 0 0.0 0.0 0.00 0.00 0.00 1014.0
20260503070537 0 0.0 0.0 0.00 0.00 0.00 1014.0
20260503055034 0 0.0 0.0 0.00 0.00 0.00 1013.9
20260503054548 0 0.0 0.0 0.00 0.00 0.00 1013.9
20260503054037 0 0.0 0.0 0.00 0.00 0.00 1013.9
20260503053538 0 0.0 0.0 0.00 0.00 0.00 1014.0
20260503053042 0 0.0 0.0 0.00 0.00 0.00 1014.1
20260503052534 0 0.0 0.0 0.00 0.00 0.00 1014.1
20260503052038 0 0.0 0.0 0.00 0.00 0.00 1014.0
20260503051551 0 0.0 0.0 0.00 0.00 0.00 1013.9
20260503051037 0 0.0 0.0 0.00 0.00 0.00 1014.0
20260503050535 0 0.0 0.0 0.00 0.00 0.00 1014.0
20260503050049 0 0.0 0.0 0.00 0.00 0.00 1014.0
20260503045538 0 0.0 0.0 0.00 0.00 0.00 1014.0
20260503045036 0 0.0 0.0 0.00 0.00 0.00 1013.9
20260503044544 0 0.0 0.0 0.00 0.00 0.00 1013.9
20260503044035 0 0.0 0.0 0.00 0.00 0.00 1013.9
20260503043535 0 0.0 0.0 0.00 0.00 0.00 1013.9
20260503043044 0 0.0 0.0 0.00 0.00 0.00 1013.8
20260503042537 0 0.0 0.0 0.00 0.00 0.00 1013.8
20260503042038 0 0.0 0.0 0.00 0.00 0.00 1013.7
20260503041603 0 0.0 0.0 0.00 0.00 0.00 1013.7
20260503041036 0 0.0 0.0 0.00 0.00 0.00 1013.7
20260503040534 0 0.0 0.0 0.00 0.00 0.00 1013.6
20260503040058 0 0.0 0.0 0.00 0.00 0.00 1013.5
20260503035533 0 0.0 0.0 0.00 0.00 0.00 1013.5
20260503035033 0 0.0 0.0 0.00 0.00 0.00 1013.4
20260503034602 0 0.0 0.0 0.00 0.00 0.00 1013.3
20260503034034 0 0.0 0.0 0.00 0.00 0.00 1013.3
20260503033533 0 0.0 0.0 0.00 0.00 0.00 1013.1
20260503033047 0 0.0 0.0 0.00 0.00 0.00 1013.2
20260503032533 0 0.0 0.0 0.00 0.00 0.00 1013.1
20260503032033 0 0.0 0.0 0.00 0.00 0.00 1013.1
20260503031544 0 0.0 0.0 0.00 0.00 0.00 1013.0
20260503031034 0 0.0 0.0 0.00 0.00 0.00 1012.9
20260503030534 0 0.0 0.0 0.00 0.00 0.00 1012.9
20260503030051 68 0.0 0.0 0.00 0.00 0.00 49 1012.9
20260503025533 68 0.0 0.0 0.00 0.00 0.00 49 1012.8
20260503025033 68 0 0.0 0.0 0.00 0.00 0.00 49 1012.8
20260503024543 68 0 0.0 0.0 0.00 0.00 0.00 49 1012.9
20260503024036 68 0 0.0 0.0 0.00 0.00 0.00 50 1012.8
20260503023536 69 0 0.0 0.0 0.00 0.00 0.00 50 1012.8
20260503023049 69 0 0.0 0.0 0.00 0.00 0.00 50 1012.8
20260503022533 69 0 0.0 0.0 0.00 0.00 0.00 50 1012.8
20260503022034 69 0 0.0 0.0 0.00 0.00 0.00 50 1012.8
20260503021545 69 0 0.0 0.0 0.00 0.00 0.00 49 1012.6
20260503021034 70 0 0.0 0.0 0.00 0.00 0.00 49 1012.8
20260503020533 70 0 0.0 0.0 0.00 0.00 0.00 49 1012.8
20260503020043 70 0 0.0 0.0 0.00 0.00 0.00 48 1012.8
20260503015534 70 0 0.0 0.0 0.00 0.00 0.00 48 1012.8
20260503015034 70 0 0.0 0.0 0.00 0.00 0.00 48 1012.7
20260503014547 70 0 0.0 0.0 0.00 0.00 0.00 48 1012.8
20260503014033 70 0 0.0 0.0 0.00 0.00 0.00 47 1012.8
20260503013534 70 0 0.0 0.0 0.00 0.00 0.00 47 1012.9
20260503013041 70 0 0.0 0.0 0.00 0.00 0.00 48 1012.9
20260503012535 70 0 0.0 0.0 0.00 0.00 0.00 48 1012.8
20260503012034 70 0 0.0 0.0 0.00 0.00 0.00 47 1012.9
20260503011545 70 0 0.0 0.0 0.00 0.00 0.00 47 1012.9
20260503011035 70 0 0.0 0.0 0.00 0.00 0.00 47 1012.9
20260503010533 70 0 0.0 0.0 0.00 0.00 0.00 47 1012.9
20260503010040 70 0 0.0 0.0 0.00 0.00 0.00 48 1012.9
20260503005533 70 0 0.0 0.0 0.00 0.00 0.00 49 1013.0
20260503005033 70 0 0.0 0.0 0.00 0.00 0.00 49 1013.0
20260503004542 70 0 0.0 0.0 0.00 0.00 0.00 50 1013.0
20260503004034 70 0 0.0 0.0 0.00 0.00 0.00 51 1013.1
20260503003533 70 0 0.0 0.0 0.00 0.00 0.00 50 1013.0
20260503003043 70 0 0.0 0.0 0.00 0.00 0.00 49 1012.9
20260503002533 70 0 0.0 0.0 0.00 0.00 0.00 49 1013.0
20260503002035 70 0 0.0 0.0 0.00 0.00 0.00 50 1013.0
20260503001556 70 0 0.0 0.0 0.00 0.00 0.00 50 1013.1
20260503001035 71 0 0.0 0.0 0.00 0.00 0.00 50 1013.2
20260503000534 71 0 0.0 0.0 0.00 0.00 0.00 49 1013.2
20260503000056 71 0 0.0 0.0 0.00 0.00 0.00 49 1013.3
20260502235534 71 0 0.0 0.0 0.00 0.00 0.00 50 1013.2
20260502235034 70 0 0.0 0.0 0.00 0.00 0.00 50 1013.3
20260502234542 70 0 0.0 0.0 0.00 0.00 0.00 51 1013.3
20260502234035 70 0 0.0 0.0 0.00 0.00 0.00 51 1013.4
20260502233533 70 0 0.0 0.0 0.00 0.00 0.00 52 1013.5
20260502233044 70 0 0.0 0.0 0.00 0.00 0.00 53 1013.7